KFLL

Fort Lauderdale Hollywood International Airport

Airport
ICAO code
KFLL
Summary
ICAO Region
NAM
ICAO Territory
Location

Fort Lauderdale, Florida,

Elevation
9 ft
Coordinates
26° 4' 21" N , 80° 9' 10" W
KCC
Airport RE
Engineered Materials Arresting System
Airport WX
Tropical Revolving Storm
Metar
Observation
KFLL 061453Z 36005KT 10SM BKN037 BKN060 BKN090 24/18 A3014 RMK AO2 SLP206 T02390183 51016
Station
Fort Lauderdale, Fort Lauderdale / Hollywood International Airport
Date/Time
2023-02-06 14:53:00
Wind direction
360°
Wind speed
05 kts
Lowest cloud amount
broken clouds
Temperature
23.9°C
Dew point
18.3°C
Humidity
70%
Weather condition
n/a

Description

International airport serving Fort Lauderdale.

Climatology

Tropical Monsoon climate (Köppen climate classification Am) - monthly mean temperatures above 18°C in every month of the year and features wet and dry seasons. A tropical monsoon climate typically features less pronounced dry seasons than a tropical savanna climate and see less variance in temperatures during the course of the year. The driest month nearly always occurs at or soon after the "winter" solstice. Hurricane season runs from July to November but south east Florida is most likely to be hit by Hurricanes in mid August to late September.

Airport map

Aerial View

SKYbrary Partners:

Safety knowledge contributed by: